Temperature
20 19 19 19 19 18 18 18 18 18 18 17 17 17 17 17 17 17 17 17 17 17 17 17 17 17 16 16 16 16 16 16 16 16 16 16 16 16 16 16 16 16 16
19 19 19 19 19 18 18 18 18 18 18 17 17 17 17 17 17 17 17 17 17 17 17 16 16 16 16 16 16 16 16 16 15 15 16 16 16 16 16 16 16 16 16
19 19 19 19 18 18 18 18 18 18 17 17 17 17 17 17 16 16 16 16 16 16 16 16 16 16 15 15 15 15 15 15 15 15 15 15 15 15 15 15 15 15 15
19 19 19 19 18 18 18 18 18 18 17 17 17 17 16 16 16 16 16 16 16 16 16 15 15 15 15 15 15 15 15 15 15 15 15 15 15 15 15 15 15 15 15
19 19 19 18 18 18 18 18 17 17 17 17 17 16 16 16 16 16 15 15 15 15 15 15 15 15 15 15 15 15 15 15 14 14 14 14 14 14 14 14 14 14 15
19 19 18 18 18 18 18 17 17 17 17 16 16 16 16 16 15 15 15 15 15 15 15 15 15 15 14 14 14 14 14 14 14 14 14 14 14 14 14 14 14 14 14
19 18 18 18 18 17 17 17 17 17 16 16 16 16 15 15 15 15 15 15 15 15 15 14 14 14 14 14 14 14 14 14 14 14 14 14 14 14 14 14 14 13 13
18 18 18 18 17 17 17 17 16 16 16 16 15 15 15 15 15 14 14 14 14 15 14 14 14 14 14 14 14 14 14 13 13 13 13 13 13 13 13 13 13 13 13
18 18 17 17 17 17 16 16 16 16 16 15 15 15 15 15 14 14 14 14 14 14 14 14 14 14 14 13 13 13 13 13 13 13 13 13 13 13 13 13 13 13 13
17 17 17 17 16 16 16 16 16 15 15 15 15 15 14 14 14 14 14 14 14 14 14 14 13 13 13 13 13 13 13 13 13 13 13 13 13 13 12 12 12 12 12
16 16 16 16 16 16 16 16 15 15 15 15 14 14 14 14 14 14 14 14 14 13 13 13 13 13 13 13 13 13 12 12 12 12 12 12 12 12 12 12 12 12 12
16 16 16 16 16 15 15 15 15 15 14 14 14 14 14 14 13 13 13 13 13 13 13 13 13 13 12 12 12 12 12 12 12 12 12 12 12 12 12 12 12 11 11
15 15 15 15 15 15 15 14 14 14 14 14 14 14 14 13 13 13 13 13 13 13 13 12 12 12 12 12 12 12 12 12 12 11 11 11 11 11 11 11 11 11 11
15 15 15 15 14 14 14 14 14 14 14 14 13 13 13 13 13 13 13 13 12 12 12 12 12 12 12 12 12 11 11 11 11 11 11 11 11 11 11 11 11 11 11
15 15 14 14 14 14 14 13 13 13 13 13 13 13 13 13 13 12 12 12 12 12 12 12 12 12 12 11 11 11 11 10 10 10 10 10 10 10 10 10 10 10 10
14 14 14 14 14 14 13 13 13 13 13 13 13 13 12 12 12 12 12 12 12 12 12 12 12 11 11 11 11 10 10 10 10 10 10 10 10 10 9 9 9 9 9
14 14 14 13 13 13 13 13 13 13 13 13 12 12 12 12 12 12 12 12 12 11 11 11 11 11 10 10 10 10 9 9 9 9 9 9 9 9 9 9 9 9 9
13 13 13 13 13 13 12 12 12 12 12 12 12 12 12 12 12 11 11 11 11 11 11 11 10 10 10 10 9 9 9 9 9 9 9 9 9 9 8 8 8 8 8
13 13 13 13 13 12 12 12 12 12 12 11 11 12 12 11 11 11 11 11 11 10 10 10 10 10 9 9 9 9 9 8 8 8 8 8 8 8 8 8 8 8 8
13 13 12 12 12 12 12 12 12 11 11 11 11 11 11 11 11 11 10 10 10 10 10 10 9 9 9 9 8 8 8 8 8 8 8 8 7 7 7 7 7 7 7
12 12 12 12 12 12 12 11 11 11 11 11 11 11 10 10 10 10 10 10 10 10 9 9 9 9 9 8 8 8 8 8 7 7 7 7 7 7 7 7 7 7 7
12 12 12 11 11 11 11 11 11 11 11 11 10 10 10 10 10 10 10 9 9 9 9 9 8 8 8 8 8 7 7 7 7 7 7 7 6 6 6 6 7 7 6
12 12 11 11 11 11 11 11 11 10 10 10 10 10 10 10 9 9 9 9 9 8 8 8 8 8 8 7 7 7 7 7 7 7 6 6 6 6 6 6 6 6 6
11 11 11 11 11 11 10 10 10 10 10 10 10 9 9 9 9 9 9 8 8 8 8 8 8 7 7 7 7 7 6 6 6 6 6 6 6 6 6 6 6 6 6
11 11 11 10 10 10 10 10 10 10 9 9 9 9 9 9 9 8 8 8 8 8 8 7 7 7 7 7 7 6 6 6 6 6 6 6 6 6 5 6 6 6 6
10 10 10 10 10 10 9 9 9 9 9 9 9 9 9 8 8 8 8 8 8 7 7 7 7 7 6 6 6 6 6 6 6 5 5 5 5 5 5 5 5 5 5
Wind_Speed
4 3 2 2 3 2 2 2 2 2 2 2 2 1 1 2 1 2 2 1 1 0 0 0 1 0 0 0 1 1 2 2 3 2 2 2 2 2 2 2 2 3 3
3 3 3 2 2 2 2 2 2 2 1 1 1 1 1 1 1 2 2 1 1 1 1 0 1 0 0 0 1 1 2 2 2 2 2 1 2 2 2 2 2 2 3
4 4 3 2 2 2 2 2 2 1 1 0 0 1 1 1 1 2 2 1 1 1 1 1 1 1 0 1 1 1 2 2 2 2 2 1 1 1 2 2 2 2 2
4 4 3 3 3 3 2 2 2 1 1 1 1 1 1 1 1 1 1 1 1 1 1 1 2 2 2 2 2 2 1 1 1 1 2 2 2 1 1 1 2 2 3
4 4 4 3 2 2 2 1 1 1 1 1 1 0 1 1 1 1 1 1 1 1 1 1 2 2 3 3 2 2 2 2 1 2 2 2 2 1 2 2 2 3 3
4 4 3 3 2 2 2 2 1 1 1 1 1 0 0 1 1 1 2 1 1 1 2 2 2 2 2 3 3 2 3 3 3 2 2 3 3 3 2 2 2 2 3
3 2 2 3 2 2 2 2 1 1 1 1 0 0 0 1 1 0 2 1 1 1 2 2 2 2 1 2 2 2 1 2 4 4 4 4 3 3 3 3 3 3 4
2 2 2 2 2 2 2 2 1 1 1 1 1 0 0 1 1 0 1 1 0 1 2 2 2 2 2 1 1 1 2 2 3 3 4 5 4 3 4 4 4 3 3
1 1 1 2 2 2 1 1 1 1 1 1 1 1 0 1 1 0 2 1 0 1 2 1 1 2 2 1 1 1 2 3 3 3 4 4 5 4 3 2 2 2 3
1 1 1 1 1 2 2 1 1 2 2 2 1 1 0 1 1 1 2 1 0 1 2 2 1 1 1 1 1 1 2 3 3 3 3 3 3 3 3 4 4 3 3
1 2 2 1 1 1 1 1 2 2 2 2 1 1 1 0 0 1 1 1 1 0 0 1 2 1 1 0 1 2 4 3 2 2 2 3 2 2 2 3 4 4 4
2 2 2 2 1 1 2 2 2 3 3 2 1 2 1 1 0 1 1 1 1 1 1 1 1 1 1 1 1 2 2 2 1 1 2 2 3 3 3 3 4 5 5
2 2 1 2 2 1 2 2 2 2 2 1 1 1 1 2 1 1 1 1 1 1 1 1 2 1 1 1 2 2 1 0 0 1 2 3 3 3 3 3 3 3 4
2 1 1 2 2 2 1 1 2 1 2 1 1 1 1 1 1 1 1 1 1 1 1 1 2 1 1 1 2 2 1 0 1 1 2 3 3 2 3 2 2 2 2
2 2 1 2 2 1 1 1 0 1 1 2 2 2 2 2 3 2 1 1 1 1 0 1 1 1 2 2 2 2 2 1 1 2 2 2 2 2 2 2 2 2 2
2 1 1 1 1 1 1 2 4 1 1 1 2 2 2 3 2 2 1 1 1 1 2 0 1 1 1 2 2 2 2 2 2 2 2 2 2 2 2 2 1 1 2
2 1 1 1 1 1 1 1 1 4 4 3 2 1 2 2 2 1 0 0 1 2 1 0 1 1 2 2 2 2 2 3 3 3 3 2 2 2 2 1 1 2 2
2 1 1 1 1 1 0 0 1 0 2 3 3 3 2 1 1 2 1 2 2 1 0 1 2 2 2 2 2 2 3 3 3 3 3 3 2 2 2 2 2 2 3
1 1 1 1 1 1 1 1 1 0 0 1 2 3 3 2 2 2 1 1 0 1 1 1 2 2 2 2 2 3 3 3 3 2 2 2 2 2 2 3 3 3 3
1 1 1 1 1 1 0 0 0 0 1 1 2 2 2 2 2 2 1 1 1 1 2 2 2 2 2 2 2 2 2 3 3 3 3 2 2 2 3 4 3 3 4
1 0 1 1 1 1 1 1 1 1 1 1 2 1 0 0 1 1 1 1 1 2 2 2 2 2 2 2 2 2 3 3 3 3 3 3 3 3 3 4 4 4 4
1 1 0 0 0 0 1 1 1 1 1 1 1 1 0 0 1 1 1 2 2 1 2 2 2 2 2 2 2 3 3 4 4 4 3 4 4 4 4 4 4 4 4
1 1 1 0 0 1 0 0 1 1 1 1 1 1 0 0 1 1 2 2 2 2 2 2 2 2 3 3 2 3 4 4 4 4 4 4 4 4 4 4 5 5 5
1 1 1 0 0 0 1 1 1 1 1 1 1 1 1 1 1 2 2 2 2 2 2 2 2 3 4 4 3 4 4 5 5 4 5 5 5 5 5 5 5 6 6
0 0 0 0 0 1 1 1 1 1 1 1 1 1 2 1 1 2 2 2 2 2 2 2 3 3 4 4 4 4 6 6 6 5 4 4 5 5 5 5 5 5 5
0 0 1 1 1 1 1 1 1 1 1 1 1 1 1 1 1 2 2 2 2 2 3 3 4 5 5 5 6 6 6 6 7 7 5 4 4 4 4 4 5 5 5
Wind_Direction
188 191 188 190 188 182 193 216 224 235 231 226 231 227 233 237 225 200 217 208 190 249 296 211 276 237 229 251 204 194 198 194 230 275 269 285 276 294 313 292 255 241 247
183 172 182 186 168 179 208 225 216 223 237 232 224 216 233 230 215 198 206 189 187 219 273 311 292 267 32 250 215 224 221 204 207 252 281 283 278 288 304 305 305 274 256
164 163 170 178 183 203 220 223 208 208 228 228 163 217 236 228 218 207 202 208 219 229 229 210 223 166 221 241 234 243 242 223 205 215 259 269 277 292 330 323 321 307 284
162 164 172 194 202 209 211 209 205 195 185 199 202 235 241 228 215 199 192 201 239 252 241 227 222 209 224 236 238 233 227 212 195 211 257 276 273 285 289 303 313 303 288
162 174 190 195 191 188 192 203 193 181 181 185 173 237 258 229 230 192 181 193 217 257 279 272 256 244 241 230 234 221 206 207 217 229 250 261 263 256 252 250 271 290 277
163 184 190 174 173 186 192 180 159 154 157 134 160 216 257 266 284 192 178 196 214 236 271 288 284 273 270 256 251 219 193 200 215 224 236 244 251 246 243 241 253 281 280
168 180 173 169 176 192 181 154 160 166 142 137 190 171 266 310 332 222 186 172 208 247 260 279 291 298 286 270 277 272 247 229 205 207 232 247 246 244 235 241 237 240 254
145 157 157 152 165 163 150 163 182 167 164 166 178 190 203 331 5 177 164 141 166 265 264 263 267 297 287 241 239 297 291 274 241 222 236 251 255 249 228 233 236 248 266
97 130 175 162 171 158 165 194 198 172 162 146 160 137 93 318 334 88 117 109 57 327 306 289 269 273 302 191 170 258 297 297 276 247 241 258 265 257 226 208 220 239 271
20 17 35 145 166 177 177 177 188 162 149 119 89 85 144 306 321 90 126 128 108 325 326 325 326 301 336 147 188 219 265 284 302 316 306 304 293 281 239 217 222 232 254
18 47 56 58 81 135 113 123 125 124 108 97 76 18 21 312 324 110 131 145 180 195 330 326 329 342 339 224 206 231 251 264 290 298 308 313 313 301 280 246 230 228 235
60 60 53 51 56 86 101 99 109 118 114 97 61 9 354 343 345 263 209 197 179 174 237 279 304 313 305 289 265 289 284 270 281 306 315 314 308 299 291 276 253 243 241
85 70 47 53 56 88 114 117 123 124 121 116 94 340 330 338 331 284 256 257 238 191 241 281 321 323 316 317 314 316 333 348 332 303 295 299 296 293 300 298 286 267 264
105 85 70 74 65 65 83 111 121 143 146 141 154 233 289 305 310 319 300 280 308 312 313 326 327 335 351 346 352 357 14 288 244 275 290 295 302 312 312 309 305 304 296
97 86 80 89 99 84 55 30 190 224 193 187 208 213 222 269 271 247 226 237 237 234 316 34 33 16 3 359 355 347 342 337 302 288 290 302 310 309 308 308 303 296 284
109 96 97 99 97 95 76 22 11 356 345 272 221 207 234 241 263 265 255 265 272 158 110 32 320 313 308 312 316 318 317 305 296 291 288 290 292 293 297 308 308 292 288
122 110 93 92 97 97 111 114 359 3 13 7 326 279 255 278 297 298 307 86 95 124 105 323 298 295 296 299 298 298 299 299 296 291 286 287 288 293 302 299 295 296 295
110 102 101 101 103 102 111 148 138 100 345 350 342 329 327 316 324 334 8 82 63 91 255 270 279 280 283 288 294 299 301 307 306 301 298 299 293 290 292 284 279 285 292
121 126 111 93 82 100 100 91 82 43 324 331 345 349 359 10 18 17 68 73 13 304 293 288 287 286 288 290 296 299 299 301 306 307 306 307 302 298 296 294 292 287 286
158 123 116 107 84 64 69 120 115 238 323 325 314 318 356 33 24 2 5 343 322 312 307 300 299 300 299 298 301 303 303 303 302 296 296 296 296 294 292 294 293 289 286
171 118 103 126 174 207 221 224 225 211 235 266 288 304 143 81 309 311 312 311 301 295 295 298 305 312 304 298 298 299 298 297 299 299 297 294 291 289 288 286 285 280 281
135 116 89 242 247 284 286 266 242 238 245 256 296 331 318 146 282 294 306 309 302 294 292 290 292 295 287 286 290 291 291 294 295 292 290 289 287 285 280 277 277 277 276
134 123 94 46 299 292 308 300 252 245 252 266 270 302 323 289 287 291 298 304 308 307 309 303 301 308 310 301 290 279 278 280 278 277 276 280 284 284 282 279 277 278 274
138 144 139 150 191 262 282 288 275 257 238 251 278 281 279 274 284 296 301 307 308 310 315 307 301 305 311 310 302 295 292 292 290 279 273 272 279 284 284 286 286 285 280
89 97 173 200 219 253 263 273 277 271 268 274 277 282 286 291 300 305 304 307 315 319 321 316 311 307 306 306 309 309 313 312 306 296 282 274 276 282 286 290 291 294 290
204 233 249 243 243 241 246 259 269 275 284 292 291 292 295 298 302 306 312 318 320 320 319 317 316 314 314 311 312 317 317 314 313 307 295 283 282 287 292 293 294 292 290
Height
1509 1510 1511 1512 1513 1513 1513 1513 1514 1514 1513 1513 1513 1513 1513 1513 1513 1513 1513 1513 1513 1513 1513 1513 1512 1512 1512 1512 1513 1513 1513 1512 1512 1511 1511 1511 1511 1511 1511 1511 1511 1511 1511
1507 1508 1509 1510 1510 1511 1511 1511 1511 1511 1511 1511 1510 1510 1510 1510 1510 1510 1510 1510 1510 1510 1510 1510 1510 1509 1509 1509 1510 1510 1510 1509 1509 1508 1508 1508 1508 1508 1508 1508 1508 1508 1508
1505 1506 1506 1507 1508 1508 1508 1509 1509 1509 1509 1508 1508 1508 1508 1508 1508 1508 1508 1508 1508 1507 1507 1507 1507 1507 1506 1507 1507 1507 1507 1506 1506 1506 1505 1505 1505 1505 1505 1505 1505 1505 1505
1502 1503 1503 1504 1505 1506 1506 1506 1506 1506 1506 1506 1506 1505 1505 1505 1505 1505 1505 1505 1505 1505 1505 1505 1504 1504 1504 1504 1504 1504 1504 1503 1503 1503 1503 1503 1503 1502 1502 1502 1502 1502 1502
1500 1501 1501 1502 1503 1503 1503 1504 1504 1504 1503 1503 1503 1503 1503 1503 1502 1502 1502 1502 1502 1502 1502 1502 1502 1501 1501 1501 1501 1501 1501 1501 1501 1500 1500 1500 1500 1499 1499 1499 1499 1499 1499
1497 1498 1498 1499 1500 1500 1500 1501 1501 1501 1501 1501 1501 1500 1500 1500 1500 1500 1500 1500 1500 1500 1499 1499 1499 1499 1499 1499 1499 1498 1498 1498 1498 1497 1497 1497 1496 1496 1496 1496 1496 1495 1495
1495 1495 1496 1496 1497 1497 1498 1498 1498 1498 1499 1499 1498 1498 1498 1498 1498 1497 1497 1497 1497 1497 1497 1497 1496 1496 1496 1496 1496 1496 1495 1495 1495 1495 1494 1494 1493 1493 1493 1493 1492 1492 1492
1493 1493 1493 1494 1494 1495 1495 1496 1496 1496 1496 1496 1496 1496 1496 1496 1495 1495 1495 1495 1495 1494 1494 1494 1493 1493 1493 1493 1493 1492 1492 1492 1492 1491 1491 1491 1491 1491 1490 1490 1489 1489 1489
1490 1490 1491 1491 1492 1492 1493 1494 1494 1494 1494 1494 1494 1494 1493 1493 1493 1493 1493 1492 1492 1491 1491 1491 1491 1490 1490 1490 1490 1489 1489 1489 1489 1488 1488 1487 1487 1487 1486 1486 1485 1485 1484
1489 1489 1489 1490 1490 1491 1491 1491 1492 1492 1492 1492 1492 1491 1491 1491 1491 1491 1490 1490 1489 1489 1489 1489 1488 1488 1488 1487 1487 1486 1485 1485 1485 1484 1484 1483 1483 1482 1482 1482 1482 1481 1480
1488 1488 1488 1489 1489 1490 1489 1490 1490 1490 1490 1490 1490 1490 1490 1489 1489 1489 1488 1488 1487 1487 1486 1486 1486 1485 1485 1484 1484 1483 1482 1482 1481 1480 1480 1479 1479 1478 1478 1477 1477 1477 1477
1488 1487 1487 1487 1488 1488 1488 1488 1488 1488 1488 1487 1488 1488 1488 1488 1488 1487 1487 1486 1485 1485 1484 1484 1483 1483 1482 1481 1481 1480 1479 1478 1478 1477 1476 1475 1475 1474 1474 1473 1473 1472 1472
1487 1487 1487 1486 1486 1487 1487 1486 1486 1486 1486 1485 1486 1486 1486 1487 1486 1486 1485 1484 1483 1483 1482 1481 1481 1480 1480 1479 1478 1477 1476 1475 1474 1473 1472 1472 1471 1471 1470 1469 1468 1468 1468
1486 1486 1485 1485 1485 1485 1485 1485 1485 1484 1484 1484 1483 1484 1484 1484 1484 1483 1483 1482 1482 1481 1480 1479 1478 1478 1477 1476 1475 1474 1473 1472 1471 1471 1469 1469 1468 1467 1466 1465 1464 1463 1462
1485 1484 1484 1484 1484 1484 1484 1485 1484 1483 1483 1483 1483 1483 1482 1482 1481 1481 1480 1480 1479 1478 1477 1477 1476 1475 1474 1473 1472 1471 1470 1469 1468 1467 1466 1465 1464 1463 1462 1461 1460 1459 1458
1484 1484 1483 1484 1484 1483 1483 1483 1483 1483 1482 1482 1482 1481 1481 1481 1480 1479 1478 1477 1476 1476 1475 1474 1473 1472 1471 1470 1469 1468 1467 1466 1465 1464 1463 1462 1461 1459 1458 1457 1456 1455 1454
1484 1483 1483 1483 1483 1483 1483 1482 1481 1481 1481 1481 1480 1480 1479 1478 1478 1477 1476 1475 1474 1473 1472 1471 1470 1469 1468 1467 1466 1465 1464 1463 1462 1461 1460 1458 1457 1456 1454 1453 1453 1452 1451
1483 1483 1482 1482 1482 1482 1481 1481 1480 1479 1479 1478 1479 1478 1477 1477 1476 1475 1474 1473 1472 1470 1469 1469 1468 1467 1466 1465 1464 1462 1461 1460 1459 1458 1456 1455 1453 1452 1451 1450 1449 1448 1448
1482 1482 1482 1481 1481 1480 1480 1480 1479 1478 1478 1477 1476 1476 1475 1474 1474 1473 1472 1471 1469 1468 1467 1467 1466 1465 1464 1462 1461 1460 1458 1457 1456 1455 1453 1452 1450 1449 1448 1447 1446 1445 1444
1481 1481 1481 1480 1479 1479 1479 1478 1477 1477 1477 1476 1475 1474 1474 1472 1471 1471 1470 1469 1468 1467 1466 1465 1464 1462 1461 1460 1459 1457 1456 1455 1453 1452 1450 1449 1448 1446 1445 1444 1443 1442 1441
1480 1479 1479 1478 1478 1478 1477 1476 1476 1476 1475 1474 1474 1473 1472 1471 1470 1469 1468 1467 1466 1465 1464 1463 1462 1460 1459 1458 1456 1455 1454 1452 1451 1449 1448 1446 1445 1444 1442 1441 1440 1439 1438
1479 1478 1478 1477 1477 1476 1475 1475 1475 1474 1474 1473 1472 1472 1471 1470 1469 1468 1467 1466 1464 1463 1462 1461 1459 1458 1456 1455 1454 1452 1451 1449 1448 1446 1445 1444 1442 1441 1439 1438 1436 1435 1434
1477 1477 1476 1476 1476 1475 1474 1473 1473 1472 1472 1471 1471 1470 1469 1468 1467 1466 1465 1464 1463 1461 1460 1459 1457 1455 1454 1452 1451 1449 1448 1446 1445 1443 1442 1440 1439 1437 1436 1434 1433 1432 1430
1476 1476 1475 1474 1474 1473 1472 1472 1471 1471 1470 1470 1469 1468 1467 1466 1465 1464 1463 1462 1461 1459 1458 1457 1455 1453 1452 1450 1448 1446 1445 1443 1442 1440 1439 1437 1435 1434 1432 1431 1429 1428 1426
1474 1474 1473 1473 1472 1471 1471 1470 1469 1469 1468 1467 1466 1466 1465 1464 1463 1462 1461 1460 1458 1457 1455 1454 1452 1450 1449 1447 1445 1443 1442 1440 1438 1437 1435 1433 1432 1430 1428 1426 1425 1423 1422
1472 1472 1471 1471 1470 1470 1469 1468 1467 1467 1466 1465 1464 1463 1462 1462 1461 1460 1459 1458 1456 1454 1453 1451 1449 1448 1446 1444 1442 1440 1438 1437 1435 1433 1431 1429 1428 1426 1424 1422 1420 1419 1418